Weather History for Ravenna, OH

Change the Weather History Date:

Saturday, April 20, 2013

  Actual Average (KCAK) Record (KCAK)
Temperature  
Mean Temperature 36 °F 51 °F  
Max Temperature 41 °F 62 °F 82 °F (1985)
Min Temperature 32 °F 40 °F 22 °F (1904)
Degree Days  
Heating Degree Days 28 14  
Month to date heating degree days 354  
Since 1 July heating degree days 5749  
Cooling Degree Days 0 0  
Month to date cooling degree days 0  
Year to date cooling degree days 0  
Moisture  
Dew Point 25 °F    
Average Humidity 63    
Maximum Humidity 87    
Minimum Humidity 45    
Precipitation  
Precipitation 0.00 in 0.12 in 1.37 in (1990)
Month to date precipitation 2.40  
Year to date precipitation 10.30  
Snow  
Snow 0.00 in 0.10 in - ()
Month to date snowfall 2.5  
Since 1 July snowfall 47.2  
Snow Depth -    
Sea Level Pressure  
Sea Level Pressure 30.15 in    
Wind  
Wind Speed 12 mph (West)    
Max Wind Speed 21 mph    
Max Gust Speed 30 mph    
Visibility 10 miles    
Events      
T = Trace of Precipitation, MM = Missing Value Source: NWS Daily Summary

Daily Weather History Graph

Daily Weather History Graph

Search for Another Location

Airport:

Trip Planner

Search our weather history database for the weather conditions in past years. The results will help you decide how hot, cold, wet, or windy it might be!

Date:

Astronomy

Apr. 20, 2013 Rise Set
Actual Time 6:37 AM EDT 8:10 PM EDT
Civil Twilight 6:08 AM EDT 8:39 PM EDT
Nautical Twilight 5:33 AM EDT 9:14 PM EDT
Astronomical Twilight 4:56 AM EDT 9:52 PM EDT
Moon 2:50 PM EDT (4/20) 3:29 AM EDT (4/20)
Length of Visible Light 14h 31m
Length of Day
13h 33m
Waxing Gibbous, 71% of the Moon is Illuminated
Apr 20
Waxing Gibbous
Apr 25
Full
May 2
Last Quarter
May 9
New
May 18
First Quarter

Hourly Weather History & Observations

Time (EDT) Temp. Windchill Dew Point Humidity Pressure Visibility Wind Dir Wind Speed Gust Speed Precip Events Conditions
12:17 AM 39.2 °F 32.0 °F 27.5 °F 63% 29.84 in 10.0 mi WSW 11.5 mph 21.9 mph N/A   Overcast
12:37 AM 39.2 °F 32.5 °F 28.0 °F 64% 29.84 in 10.0 mi WSW 10.4 mph 19.6 mph N/A   Overcast
6:05 AM 35.6 °F 28.6 °F 28.4 °F 75% 29.91 in 10.0 mi WSW 9.2 mph 16.1 mph N/A   Mostly Cloudy
6:25 AM 35.6 °F 27.1 °F 30.2 °F 81% 29.92 in 7.0 mi WSW 12.7 mph 18.4 mph N/A   Overcast
6:45 AM 33.8 °F 26.4 °F 30.2 °F 87% 29.93 in 10.0 mi WSW 9.2 mph 17.3 mph N/A   Overcast
7:05 AM 35.6 °F 26.2 °F 30.2 °F 81% 29.94 in 10.0 mi WSW 15.0 mph 23.0 mph N/A   Overcast
7:25 AM 33.8 °F 25.8 °F 30.2 °F 87% 29.95 in 10.0 mi WSW 10.4 mph 18.4 mph N/A   Overcast
7:45 AM 33.8 °F 24.8 °F 30.2 °F 87% 29.96 in 10.0 mi WSW 12.7 mph 18.4 mph N/A   Overcast
8:05 AM 35.6 °F 25.5 °F 30.2 °F 81% 29.98 in 10.0 mi WSW 17.3 mph 25.3 mph N/A   Scattered Clouds
8:25 AM 35.6 °F 25.9 °F 28.4 °F 75% 29.99 in 10.0 mi WSW 16.1 mph 23.0 mph N/A   Mostly Cloudy
8:45 AM 35.6 °F 24.5 °F 26.6 °F 70% 30.00 in 10.0 mi West 20.7 mph 29.9 mph N/A   Mostly Cloudy
9:05 AM 35.6 °F 27.1 °F 26.6 °F 70% 30.01 in 10.0 mi WSW 12.7 mph 23.0 mph N/A   Overcast
9:25 AM 37.4 °F 27.8 °F 26.6 °F 65% 30.01 in 10.0 mi WSW 17.3 mph 25.3 mph N/A   Overcast
9:45 AM 35.6 °F 25.2 °F 26.6 °F 70% 30.03 in 5.0 mi West 18.4 mph 26.5 mph N/A   Overcast
10:05 AM 32.0 °F 21.2 °F 26.6 °F 80% 30.05 in 2.5 mi West 16.1 mph 23.0 mph N/A   Overcast
10:25 AM 33.8 °F 24.8 °F 26.6 °F 75% 30.06 in 10.0 mi WSW 12.7 mph 20.7 mph N/A   Overcast
10:45 AM 37.4 °F 28.5 °F 26.6 °F 65% 30.07 in 10.0 mi West 15.0 mph 20.7 mph N/A   Mostly Cloudy
11:05 AM 37.4 °F 27.5 °F 24.8 °F 60% 30.09 in 10.0 mi West 18.4 mph 27.6 mph N/A   Overcast
11:25 AM 37.4 °F 27.2 °F 24.8 °F 60% 30.10 in 10.0 mi West 19.6 mph 25.3 mph N/A   Overcast
11:45 AM 37.4 °F 27.5 °F 23.0 °F 56% 30.11 in 10.0 mi West 18.4 mph 26.5 mph N/A   Overcast
12:05 PM 37.4 °F 28.2 °F 23.0 °F 56% 30.12 in 10.0 mi West 16.1 mph 21.9 mph N/A   Overcast
12:25 PM 37.4 °F 27.5 °F 23.0 °F 56% 30.13 in 10.0 mi West 18.4 mph 25.3 mph N/A   Overcast
12:45 PM 37.4 °F 26.9 °F 23.0 °F 56% 30.14 in 10.0 mi West 20.7 mph - N/A   Overcast
1:05 PM 37.4 °F 27.5 °F 24.8 °F 60% 30.14 in 10.0 mi West 18.4 mph 23.0 mph N/A   Overcast
1:25 PM 37.4 °F 28.2 °F 24.8 °F 60% 30.15 in 10.0 mi West 16.1 mph 24.2 mph N/A   Overcast
1:45 PM 37.4 °F 28.9 °F 23.0 °F 56% 30.15 in 10.0 mi WNW 13.8 mph 24.2 mph N/A   Overcast
2:05 PM 39.2 °F 32.0 °F 24.8 °F 56% 30.16 in 10.0 mi WNW 11.5 mph 18.4 mph N/A   Overcast
2:25 PM 39.2 °F 32.5 °F 23.0 °F 52% 30.17 in 10.0 mi West 10.4 mph 20.7 mph N/A   Overcast
3:05 PM 41.0 °F 34.3 °F 23.0 °F 49% 30.18 in 10.0 mi West 11.5 mph 16.1 mph N/A   Overcast
3:25 PM 39.2 °F 31.2 °F 23.0 °F 52% 30.19 in 10.0 mi West 13.8 mph 18.4 mph N/A   Overcast
3:45 PM 41.0 °F 32.8 °F 21.2 °F 45% 30.20 in 10.0 mi West 16.1 mph 21.9 mph N/A   Mostly Cloudy
4:05 PM 41.0 °F 35.2 °F 21.2 °F 45% 30.21 in 10.0 mi WNW 9.2 mph 21.9 mph N/A   Overcast
4:25 PM 41.0 °F 34.3 °F 23.0 °F 49% 30.21 in 10.0 mi WNW 11.5 mph 19.6 mph N/A   Overcast
4:45 PM 39.2 °F 32.5 °F 24.8 °F 56% 30.22 in 10.0 mi WNW 10.4 mph - N/A   Overcast
5:25 PM 39.2 °F 32.5 °F 24.8 °F 56% 30.24 in 10.0 mi NW 10.4 mph 16.1 mph N/A   Overcast
6:25 PM 39.2 °F 32.0 °F 24.8 °F 56% 30.27 in 10.0 mi NW 11.5 mph - N/A   Overcast
6:45 PM 39.2 °F 33.6 °F 24.8 °F 56% 30.27 in 10.0 mi WNW 8.1 mph - N/A   Mostly Cloudy
7:05 PM 37.4 °F 30.8 °F 23.0 °F 56% 30.28 in 10.0 mi NW 9.2 mph - N/A   Scattered Clouds
7:25 PM 37.4 °F 32.1 °F 23.0 °F 56% 30.28 in 10.0 mi NW 6.9 mph - N/A   Clear
7:45 PM 37.4 °F 31.4 °F 23.0 °F 56% 30.29 in 10.0 mi NNW 8.1 mph - N/A   Scattered Clouds
8:05 PM 35.6 °F 29.9 °F 23.0 °F 60% 30.30 in 10.0 mi NW 6.9 mph - N/A   Scattered Clouds
8:25 PM 35.6 °F 29.9 °F 23.0 °F 60% 30.32 in 10.0 mi NW 6.9 mph - N/A   Mostly Cloudy
8:45 PM 35.6 °F 31.7 °F 21.2 °F 56% 30.33 in 10.0 mi NW 4.6 mph - N/A   Overcast
9:05 PM 35.6 °F 31.7 °F 21.2 °F 56% 30.34 in 10.0 mi WNW 4.6 mph - N/A   Overcast
9:25 PM 35.6 °F 32.8 °F 21.2 °F 56% 30.35 in 10.0 mi WNW 3.5 mph - N/A   Overcast
9:45 PM 35.6 °F 32.8 °F 21.2 °F 56% 30.36 in 10.0 mi NW 3.5 mph - N/A   Mostly Cloudy
10:05 PM 35.6 °F - 21.2 °F 56% 30.37 in 10.0 mi Calm Calm - N/A   Mostly Cloudy
10:25 PM 33.8 °F - 26.6 °F 75% 30.37 in 10.0 mi Calm Calm - N/A   Overcast
10:45 PM 33.8 °F - 23.0 °F 65% 30.37 in 10.0 mi Calm Calm - N/A   Overcast
11:05 PM 33.8 °F - 23.0 °F 65% 30.38 in 10.0 mi Calm Calm - N/A   Overcast
11:25 PM 33.8 °F - 24.8 °F 70% 30.39 in 10.0 mi Calm Calm - N/A   Overcast